This is the latest recevied weather packets stored in our database for station/object 4S6DRJ-13. If no packets are shown the sender has not sent any weather packets the latest 10 day(s).
| Time | Temp. | Humidity | Pressure | Rain* | Wind** | Luminosity | Snow |
|---|---|---|---|---|---|---|---|
| 1788404481 | 28.33° C | 84% | 1010.7 hPa | 0 mm | 0.89 m/s, 190° | 629 W/m² | - |
| 1788404421 | 28.33° C | 84% | 1010.5 hPa | 0 mm | 1.79 m/s, 282° | 647 W/m² | - |
| 1788404360 | 28.33° C | 84% | 1010.5 hPa | 0 mm | 0.89 m/s, 274° | 626 W/m² | - |
| 1788404299 | 28.33° C | 85% | 1010.5 hPa | 0 mm | 0.89 m/s, 284° | 485 W/m² | - |
| 1788404238 | 28.33° C | 84% | 1010.6 hPa | 0 mm | 1.34 m/s, 239° | 299 W/m² | - |
| 1788404177 | 28.33° C | 84% | 1010.5 hPa | 0 mm | 1.34 m/s, 232° | 291 W/m² | - |
| 1788404115 | 28.33° C | 85% | 1010.5 hPa | 0 mm | 0.89 m/s, 254° | 430 W/m² | - |
| 1788404055 | 28.33° C | 85% | 1010.5 hPa | 0 mm | 0.89 m/s, 236° | 350 W/m² | - |
| 1788403993 | 28.33° C | 85% | 1010.5 hPa | 0 mm | 0.45 m/s, 263° | 277 W/m² | - |
| 1788403932 | 28.33° C | 85% | 1010.5 hPa | 0 mm | 0.45 m/s, 234° | 225 W/m² | - |
| 1788403871 | 28.33° C | 85% | 1010.4 hPa | 0 mm | 0.45 m/s, 202° | 221 W/m² | - |
| 1788403811 | 28.33° C | 85% | 1010.5 hPa | 0 mm | 1.34 m/s, 212° | 228 W/m² | - |
| 1788403749 | 28.33° C | 85% | 1010.5 hPa | 0 mm | 0.89 m/s, 284° | 236 W/m² | - |
| 1788403689 | 28.33° C | 85% | 1010.5 hPa | 0 mm | 0.45 m/s, 313° | 241 W/m² | - |
| 1788403628 | 28.33° C | 85% | 1010.5 hPa | 0 mm | 0.45 m/s, 249° | 256 W/m² | - |
| 1788403567 | 28.33° C | 85% | 1010.2 hPa | 0 mm | 0.45 m/s, 268° | 250 W/m² | - |
| 1788403505 | 27.78° C | 85% | 1010.3 hPa | 0 mm | 0.89 m/s, 258° | 251 W/m² | - |
| 1788403444 | 27.78° C | 85% | 1010.4 hPa | 0 mm | 0.89 m/s, 188° | 271 W/m² | - |
| 1788403383 | 27.78° C | 85% | 1010.4 hPa | 0 mm | 0.89 m/s, 319° | 319 W/m² | - |
| 1788403322 | 27.78° C | 85% | 1010.4 hPa | 0 mm | 0.89 m/s, 301° | 357 W/m² | - |
| 1788403262 | 27.78° C | 85% | 1010.4 hPa | 0 mm | 0.89 m/s, 290° | 395 W/m² | - |
| 1788403200 | 27.78° C | 85% | 1010.2 hPa | 0 mm | 0 m/s | 334 W/m² | - |
| 1788403139 | 27.78° C | 85% | 1010.4 hPa | 0 mm | 0.89 m/s, 231° | 255 W/m² | - |
| 1788403078 | 27.78° C | 86% | 1010.2 hPa | 0 mm | 0.45 m/s, 222° | 221 W/m² | - |
| 1788403017 | 27.78° C | 86% | 1010.4 hPa | 0 mm | 0 m/s | 200 W/m² | - |
* Rain latest hour (hover to see other rain measurements)
** Current wind speed in m/s (hover to see current wind gust speed)